Weather History for Montreal, QC

Change the Weather History Date:

Monday, November 12, 2012

  Actual Average Record
Temperature  
Mean Temperature 48 °F -  
Max Temperature 65 °F 40 °F 65 °F (2012)
Min Temperature 30 °F 28 °F 21 °F (2004)
Degree Days  
Heating Degree Days 18    
Moisture  
Dew Point 39 °F    
Average Humidity 72    
Maximum Humidity 93    
Minimum Humidity 43    
Precipitation  
Precipitation 0.04 in - - ()
Sea Level Pressure  
Sea Level Pressure 30.12 in    
Wind  
Wind Speed 10 mph ()    
Max Wind Speed 22 mph    
Max Gust Speed -    
Visibility 13.5 miles    
Events Rain    
Averages and records for this station are not official NWS values.
T = Trace of Precipitation, MM = Missing Value Source: Averaged Metar Reports

Daily Weather History Graph

Daily Weather History Graph

Search for Another Location

Airport:

Trip Planner

Search our weather history database for the weather conditions in past years. The results will help you decide how hot, cold, wet, or windy it might be!

Date:

Astronomy

Nov. 12, 2012 Rise Set
Actual Time 6:50 AM EST 4:27 PM EST
Civil Twilight 6:18 AM EST 4:59 PM EST
Nautical Twilight 5:42 AM EST 5:34 PM EST
Astronomical Twilight 5:07 AM EST 6:09 PM EST
Moon 5:09 AM EST (11/12) 3:32 PM EST (11/12)
Length of Visible Light 10h 40m
Length of Day
9h 37m
Waning Crescent, 2% of the Moon is Illuminated
Nov 12
Waning Crescent
Nov 13
New
Nov 20
First Quarter
Nov 28
Full
Dec 6
Last Quarter

Hourly Weather History & Observations

Time (EST) Temp. Windchill Dew Point Humidity Pressure Visibility Wind Dir Wind Speed Gust Speed Precip Events Conditions
12:00 AM 33.8 °F 25.3 °F 32.0 °F 93% 30.25 in 12.0 mi NNE 11.5 mph - N/A   Partly Cloudy
1:00 AM 33 °F - 31 °F 87% 30.25 in 15 mi NNE 9.2 mph - -   Clear
1:00 AM 33.8 °F 25.8 °F 30.2 °F 87% 30.25 in 15.0 mi NNE 10.4 mph - N/A   Partly Cloudy
2:00 AM 32.0 °F 24.2 °F 30.2 °F 93% 30.25 in 12.0 mi NNE 9.2 mph - N/A   Partly Cloudy
3:00 AM 32.0 °F 24.2 °F 30.2 °F 93% 30.24 in 12.0 mi North 9.2 mph - N/A   Partly Cloudy
4:00 AM 32.0 °F 25.6 °F 30.2 °F 93% 30.24 in 12.0 mi North 6.9 mph - N/A   Clear
5:00 AM 32.0 °F 25.6 °F 30.2 °F 93% 30.23 in 12.0 mi North 6.9 mph - N/A   Clear
6:00 AM 32.0 °F 24.8 °F 30.2 °F 93% 30.22 in 12.0 mi NNE 8.1 mph - N/A   Partly Cloudy
7:00 AM 32 °F - 30 °F 90% 30.23 in 10 mi North 6.9 mph - -   Clear
7:00 AM 32.0 °F 25.6 °F 30.2 °F 93% 30.23 in 10.0 mi North 6.9 mph - N/A   Partly Cloudy
8:00 AM 33.8 °F 28.6 °F 32.0 °F 93% 30.22 in 12.0 mi North 5.8 mph - N/A   Partly Cloudy
9:00 AM 39.2 °F 35.9 °F 35.6 °F 87% 30.21 in 12.0 mi North 4.6 mph - N/A   Scattered Clouds
10:00 AM 44.6 °F 43.1 °F 37.4 °F 76% 30.19 in 12.0 mi North 3.5 mph - N/A   Mostly Cloudy
11:00 AM 53.6 °F - 41.0 °F 62% 30.17 in 12.0 mi North 3.5 mph - N/A   Mostly Cloudy
12:00 PM 64.4 °F - 48.2 °F 56% 30.14 in 12.0 mi SSE 8.1 mph - N/A   Mostly Cloudy
1:00 PM 62 °F - 47 °F 48% 30.11 in 15 mi SE 13.8 mph - -   Scattered Clouds
1:00 PM 62.6 °F - 46.4 °F 55% 30.11 in 15.0 mi SE 13.8 mph - N/A   Mostly Cloudy
2:00 PM 60.8 °F - 46.4 °F 59% 30.09 in 15.0 mi SE 13.8 mph - N/A   Overcast
3:00 PM 62.6 °F - 46.4 °F 55% 30.06 in 15.0 mi SE 12.7 mph - N/A   Overcast
4:00 PM 62.6 °F - 46.4 °F 55% 30.02 in 15.0 mi SSE 13.8 mph - N/A   Overcast
5:00 PM 62.6 °F - 46.4 °F 55% 30.00 in 15.0 mi SSE 20.7 mph - N/A   Mostly Cloudy
6:00 PM 62.6 °F - 44.6 °F 52% 29.99 in 15.0 mi SSE 21.9 mph - N/A   Partly Cloudy
7:00 PM 63 °F - 46 °F 43% 29.95 in 15 mi SSE 21.9 mph - -   Scattered Clouds
7:00 PM 62.6 °F - 46.4 °F 55% 29.95 in 15.0 mi SSE 19.6 mph - N/A   Partly Cloudy
8:00 PM 60.8 °F - 46.4 °F 59% 29.93 in 15.0 mi SSE 20.7 mph - N/A   Mostly Cloudy
9:00 PM 60.8 °F - 46.4 °F 59% 29.93 in 15.0 mi SSE 18.4 mph - N/A   Overcast
10:00 PM 60.8 °F - 46.4 °F 59% 29.92 in 15.0 mi South 16.1 mph - N/A   Overcast
11:00 PM 60.8 °F - 48.2 °F 63% 29.91 in 15.0 mi SSE 15.0 mph - N/A   Overcast
11:36 PM 60.8 °F - - N/A% - 15.0 mi SSE 16.1 mph - N/A Rain Light Rain